This is the latest recevied weather packets stored in our database for station/object IK1AMC-3. If no packets are shown the sender has not sent any weather packets the latest 10 day(s).
| Time | Temp. | Humidity | Pressure | Rain* | Wind** | Luminosity | Snow |
|---|---|---|---|---|---|---|---|
| 1777281401 | 18.33° C | 71% | 1019.2 hPa | - | - | - | - |
| 1777280200 | 18.89° C | 71% | 1019.4 hPa | - | - | - | - |
| 1777278999 | 18.33° C | 70% | 1019.3 hPa | - | - | - | - |
| 1777277797 | 17.78° C | 71% | 1019.3 hPa | - | - | - | - |
| 1777276596 | 17.78° C | 72% | 1019.1 hPa | - | - | - | - |
| 1777275395 | 17.22° C | 73% | 1019.1 hPa | - | - | - | - |
| 1777274193 | 17.22° C | 74% | 1019.2 hPa | - | - | - | - |
| 1777272992 | 16.67° C | 74% | 1019.1 hPa | - | - | - | - |
| 1777271791 | 16.11° C | 74% | 1019.1 hPa | - | - | - | - |
| 1777270590 | 15° C | 77% | 1019.2 hPa | - | - | - | - |
| 1777269388 | 15° C | 78% | 1019.2 hPa | - | - | - | - |
| 1777268187 | 14.44° C | 78% | 1018.9 hPa | - | - | - | - |
| 1777266986 | 13.89° C | 78% | 1018.9 hPa | - | - | - | - |
| 1777265784 | 13.89° C | 79% | 1018.7 hPa | - | - | - | - |
| 1777264583 | 13.89° C | 78% | 1018.6 hPa | - | - | - | - |
| 1777263382 | 13.89° C | 79% | 1018.5 hPa | - | - | - | - |
| 1777262181 | 13.89° C | 79% | 1018.5 hPa | - | - | - | - |
| 1777260980 | 13.89° C | 79% | 1018.5 hPa | - | - | - | - |
| 1777259778 | 13.89° C | 79% | 1018.4 hPa | - | - | - | - |
| 1777258577 | 14.44° C | 77% | 1018.4 hPa | - | - | - | - |
| 1777257376 | 13.89° C | 78% | 1018.3 hPa | - | - | - | - |
| 1777256174 | 13.89° C | 77% | 1018.4 hPa | - | - | - | - |
| 1777254973 | 13.89° C | 78% | 1018.3 hPa | - | - | - | - |
| 1777253771 | 13.89° C | 77% | 1018.3 hPa | - | - | - | - |
| 1777252570 | 14.44° C | 75% | 1018.5 hPa | - | - | - | - |
* Rain since midnight (hover to see other rain measurements)
** Current wind speed in m/s (hover to see current wind gust speed)